1499472000.96,1629,16.94,74036.3,4.55,4.07,4.11,0,*42
1499472002.18,1630,16.88,74040.0,4.55,4.11,4.01,0,*4C
1499472003.39,1631,16.88,74036.8,4.55,4.07,4.07,0,*4C
1499472004.63,1632,16.88,74040.8,4.55,4.01,4.01,0,*4F
1499472005.87,1633,16.88,74042.8,4.55,3.97,4.01,0,*46
1499472007.11,1634,16.88,74040.3,4.55,3.97,3.97,0,*49
1499472008.35,1635,16.88,74036.3,4.55,3.97,3.97,0,*48
1499472009.6,1636,16.88,74038.5,4.55,3.97,3.97,0,*4B
1499472010.84,1637,16.94,74028.8,4.55,3.97,4.01,0,*42
1499472012.08,1638,16.88,74022.0,4.55,3.97,4.01,0,*4D
1499472013.28,1639,16.88,74018.3,4.57,4.05,4.11,0,*43
1499472014.47,1640,16.88,74014.0,4.57,4.05,4.11,0,*4D
1499472015.64,1641,16.88,74026.5,4.57,4.11,4.11,0,*49
1499472016.81,1642,16.88,74026.3,4.57,4.11,4.15,0,*4E
1499472017.98,1643,16.88,74018.5,4.57,4.15,4.15,0,*4B
1499472019.15,1644,16.88,74018.0,4.57,4.11,4.11,0,*4C
1499472020.32,1645,16.88,74030.3,4.57,4.11,4.11,0,*4D
1499472021.49,1646,16.88,74028.5,4.57,4.11,4.15,0,*4A
1499472022.66,1647,16.88,74042.5,4.57,4.11,4.11,0,*4F
1499472023.84,1648,16.88,74048.0,4.61,4.11,4.15,0,*41
1499472025.01,1649,16.88,74046.8,4.57,4.11,4.11,0,*41
1499472026.21,1650,16.88,74044.0,4.61,4.05,4.11,0,*49
1499472027.43,1651,16.88,74040.5,4.57,4.01,4.05,0,*4C
1499472028.6,1652,16.88,74038.0,4.57,3.93,3.93,0,*4B
1499472029.82,1653,16.88,74036.8,4.57,4.01,4.01,0,*4A
1499472031.03,1654,16.88,74034.8,4.57,4.01,4.01,0,*4D
1499472032.26,1655,16.88,74032.0,4.57,4.05,4.05,0,*4C
1499472033.43,1656,16.88,74026.3,4.61,4.11,4.11,0,*4A
1499472034.6,1657,16.88,74028.0,4.57,4.11,4.11,0,*4E
1499472035.77,1658,16.88,74028.8,4.57,4.11,4.11,0,*41
1499472036.95,1659,16.88,74036.3,4.61,4.11,4.11,0,*45
1499472038.12,1660,16.88,74032.3,4.57,4.11,4.15,0,*4E
1499472039.29,1661,16.88,74028.8,4.57,4.11,4.11,0,*4B
1499472040.46,1662,16.88,74032.8,4.57,4.15,4.15,0,*48
1499472041.63,1663,16.88,74042.3,4.61,4.11,4.11,0,*4C
1499472042.81,1664,16.88,74038.5,4.61,4.11,4.15,0,*4F
1499472043.98,1665,16.88,74038.8,4.61,4.11,4.15,0,*4E
1499472045.15,1666,16.88,74038.3,4.61,4.15,4.11,0,*4D
1499472046.33,1667,16.94,74042.3,4.61,4.11,4.11,0,*48
1499472047.5,1668,16.88,74046.8,4.61,4.11,4.11,0,*47
1499472048.67,1669,16.88,74040.5,4.61,4.15,4.11,0,*42
1499472049.85,1670,16.88,74038.5,4.61,4.15,4.11,0,*4A
1499472051.02,1671,16.88,74042.8,4.61,4.15,4.11,0,*4B
1499472052.2,1672,16.88,74042.5,4.61,4.15,4.15,0,*4C
1499472053.37,1673,16.88,74044.3,4.61,4.11,4.15,0,*49
1499472054.54,1674,16.88,74042.0,4.61,4.15,4.11,0,*4E
1499472055.74,1675,16.88,74040.8,4.63,4.15,4.19,0,*45
1499472056.91,1676,16.88,74036.3,4.61,4.11,4.11,0,*48
1499472058.09,1677,16.88,74040.5,4.61,4.11,4.11,0,*49
1499472059.26,1678,16.88,74048.3,4.61,4.15,4.15,0,*46
1499472060.44,1679,16.88,74046.3,4.61,4.11,4.11,0,*47
1499472061.67,1680,16.88,74046.5,4.63,4.05,4.07,0,*41
1499472062.85,1681,16.88,74048.0,4.61,3.89,3.89,0,*40
1499472064.09,1682,16.88,74046.8,4.63,3.97,4.05,0,*4D
1499472065.31,1683,16.88,74044.3,4.61,4.01,4.01,0,*42
1499472066.56,1684,16.88,74040.8,4.63,3.97,4.05,0,*4B
1499472067.79,1685,16.88,74038.3,4.63,4.07,4.05,0,*44
1499472069.04,1686,16.88,74036.8,4.63,4.05,4.05,0,*45
1499472070.22,1687,16.88,74038.3,4.65,4.15,4.07,0,*41
1499472071.41,1688,16.88,74034.0,4.63,4.19,4.19,0,*4B
1499472072.61,1689,16.88,74030.5,4.63,4.15,4.15,0,*4A
1499472073.84,1690,16.88,74026.3,4.63,4.05,4.07,0,*40
1499472075.04,1691,16.88,74026.8,4.63,4.07,4.07,0,*43
1499472076.25,1692,16.88,74020.5,4.63,4.07,4.07,0,*40
1499472077.45,1693,16.88,74020.5,4.63,4.07,4.15,0,*42
1499472078.62,1694,16.88,74020.0,4.65,4.07,4.07,0,*40
1499472079.79,1695,16.88,74028.0,4.65,4.15,4.15,0,*41
1499472080.96,1696,16.88,74026.0,4.65,4.15,4.15,0,*42
1499472082.13,1697,16.88,74020.8,4.65,4.19,4.15,0,*4F
1499472083.3,1698,16.88,74026.0,4.65,4.15,4.07,0,*4F
1499472084.47,1699,16.88,74026.0,4.65,4.07,4.07,0,*4D
1499472085.64,1700,16.88,74028.8,4.65,4.07,4.07,0,*4C
1499472086.85,1701,16.88,74034.3,4.63,4.15,4.07,0,*48
1499472088.05,1702,16.88,74038.8,4.63,4.15,4.15,0,*48
1499472089.22,1703,16.88,74032.3,4.65,4.15,4.07,0,*4C
1499472090.39,1704,16.88,74018.8,4.65,4.15,4.07,0,*4B
1499472091.59,1705,16.94,74026.3,4.65,4.07,4.05,0,*4B
1499472092.79,1706,16.88,74028.0,4.63,4.15,4.07,0,*4F
1499472093.96,1707,16.88,74036.5,4.65,4.15,4.15,0,*4B
1499472095.16,1708,16.88,74032.3,4.63,4.19,4.15,0,*4E
1499472096.33,1709,16.88,74030.8,4.65,4.15,4.15,0,*45
1499472097.53,1710,16.88,74030.8,4.65,4.15,4.05,0,*4C
1499472098.7,1711,16.88,74036.8,4.65,4.07,4.07,0,*4C
1499472099.9,1712,16.88,74028.8,4.65,4.07,4.05,0,*4D
1499472101.07,1713,16.88,74038.0,4.65,4.07,4.07,0,*4E
1499472102.27,1714,16.88,74038.0,4.65,4.07,4.05,0,*4B
1499472103.49,1715,16.88,74040.5,4.65,3.97,4.05,0,*44
1499472104.66,1716,16.88,74034.0,4.65,3.93,3.93,0,*4B
1499472105.84,1717,16.88,74044.5,4.65,3.89,3.89,0,*4A
1499472107.01,1718,16.88,74040.3,4.65,3.81,3.89,0,*4D
1499472108.26,1719,16.88,74022.3,4.63,3.37,3.45,0,*47
1499472109.48,1720,16.88,74000.5,4.63,3.49,3.55,0,*45
1499472110.73,1721,16.88,73994.3,4.63,3.79,3.79,0,*49
1499472111.93,1722,16.88,74006.8,4.63,3.89,3.93,0,*41
1499472113.14,1723,16.88,74016.5,4.65,3.97,3.97,0,*4D
1499472114.36,1724,16.88,74030.8,4.65,3.97,4.05,0,*46
1499472115.61,1725,16.88,74030.8,4.63,3.97,4.05,0,*41
1499472116.84,1726,16.88,74032.8,4.63,4.07,4.05,0,*4C
1499472118.06,1727,16.88,74024.3,4.63,3.97,3.93,0,*4B
1499472119.26,1728,16.88,74030.5,4.65,3.93,3.97,0,*42
1499472120.47,1729,16.88,74024.0,4.65,3.97,4.05,0,*4B
1499472121.65,1730,16.94,74030.0,4.65,4.07,4.07,0,*4F
1499472122.85,1731,16.88,74032.3,4.63,3.89,3.93,0,*43
1499472124.07,1732,16.88,74028.8,4.63,3.59,3.67,0,*46
1499472125.27,1733,16.88,74032.3,4.63,3.59,3.59,0,*4A
1499472126.46,1734,16.88,74028.3,4.63,3.59,3.59,0,*4D
1499472127.72,1735,16.88,74024.3,4.63,3.67,3.71,0,*4B
1499472128.97,1736,16.88,74030.5,4.63,3.79,3.79,0,*4F
1499472130.14,1737,16.88,74032.5,4.61,3.85,3.85,0,*4C
1499472131.32,1738,16.88,74030.3,4.61,3.89,3.89,0,*43
1499472132.56,1739,16.88,74034.0,4.63,3.97,3.97,0,*40
1499472133.82,1740,16.88,74036.0,4.63,4.05,4.05,0,*4E
1499472135.07,1741,16.88,74040.3,4.63,4.05,4.05,0,*4F
1499472136.33,1742,16.88,74038.3,4.63,4.05,4.05,0,*4C
1499472137.56,1743,16.88,74044.0,4.63,4.05,4.07,0,*4F
1499472138.78,1744,16.88,74046.3,4.63,4.07,4.05,0,*48
1499472140.04,1745,16.88,74040.3,4.63,4.05,4.05,0,*4B
1499472141.29,1746,16.94,74044.8,4.63,3.97,4.05,0,*44
1499472142.53,1747,16.88,74042.3,4.63,3.97,3.97,0,*49
1499472143.75,1748,16.88,74038.5,4.63,4.07,3.97,0,*48
1499472145.0,1749,16.88,74042.3,4.63,4.05,3.97,0,*4B
1499472146.26,1750,16.88,74042.0,4.63,4.05,4.05,0,*4F
1499472147.49,1751,16.88,74042.3,4.63,4.05,4.07,0,*4C
1499472148.71,1752,16.88,74040.3,4.63,3.93,3.97,0,*49
1499472149.94,1753,16.88,74038.3,4.63,3.93,3.97,0,*48
1499472151.14,1754,16.88,74042.0,4.63,3.89,3.93,0,*40
1499472152.34,1755,16.88,74042.8,4.63,3.81,3.81,0,*4A
1499472153.57,1756,16.88,74042.8,4.63,3.81,3.79,0,*4E
1499472154.82,1757,16.88,74040.5,4.63,3.71,3.71,0,*48
1499472156.01,1758,16.88,74040.8,4.63,3.55,3.59,0,*4B
1499472157.23,1759,16.88,74034.8,4.61,3.53,3.53,0,*44
1499472158.41,1760,16.88,74032.0,4.57,3.53,3.63,0,*48
1499472159.65,1761,16.88,74028.5,4.61,3.67,3.75,0,*4C
1499472160.82,1762,16.88,74034.8,4.61,3.85,3.85,0,*4C
1499472162.0,1763,16.88,74030.8,4.61,3.89,3.89,0,*4D
1499472163.17,1764,16.88,74030.0,4.57,3.85,3.89,0,*43
1499472164.37,1765,16.88,74026.5,4.61,3.79,3.85,0,*48
1499472165.54,1766,16.88,74032.0,4.61,3.85,3.85,0,*48
1499472166.72,1767,16.88,74038.5,4.61,3.89,3.89,0,*49
1499472167.95,1768,16.88,74036.8,4.63,3.97,3.93,0,*40
1499472169.17,1769,16.88,74040.5,4.63,3.97,4.07,0,*4B
1499472170.37,1770,16.88,74042.5,4.63,3.93,3.93,0,*4D
1499472171.62,1771,16.88,74044.0,4.63,3.97,3.97,0,*4C
1499472172.82,1772,16.88,74036.0,4.63,3.93,3.93,0,*4F
1499472174.03,1773,16.88,74036.0,4.63,3.89,3.93,0,*45
1499472175.2,1774,16.88,74032.0,4.61,3.85,3.89,0,*47
1499472176.41,1775,16.88,74038.3,4.61,3.67,3.63,0,*4E
1499472177.58,1776,16.94,74036.0,4.61,3.63,3.63,0,*49
1499472178.77,1777,16.88,74028.8,4.61,3.55,3.53,0,*4E
1499472179.94,1778,16.88,74030.5,4.61,3.63,3.63,0,*47
1499472181.17,1779,16.88,74032.8,4.61,3.75,3.75,0,*46
1499472182.33,1780,16.88,74030.8,4.57,3.85,3.85,0,*45
1499472183.53,1781,16.88,74024.3,4.57,3.63,3.67,0,*40
1499472184.76,1782,16.88,74026.8,4.61,3.75,3.75,0,*42
1499472185.93,1783,16.88,74030.3,4.61,3.85,3.85,0,*43
1499472187.1,1784,16.88,74018.3,4.61,3.89,3.85,0,*48
1499472188.33,1785,16.88,74008.0,4.57,3.75,3.79,0,*4C
1499472189.52,1786,16.88,74020.3,4.57,3.79,3.85,0,*40
1499472190.69,1787,16.94,74030.3,4.61,3.85,3.85,0,*47
1499472191.92,1788,16.88,74038.5,4.61,3.79,3.79,0,*48
1499472193.15,1789,16.88,74038.5,4.61,3.75,3.75,0,*49
1499472194.35,1790,16.88,74038.5,4.61,3.67,3.55,0,*40
1499472195.54,1791,16.88,74040.3,4.57,3.53,3.55,0,*43
1499472196.77,1792,16.88,74036.0,4.57,3.41,3.41,0,*46
1499472198.0,1793,16.88,74038.8,4.57,3.41,3.33,0,*42
1499472199.17,1794,16.88,74046.0,4.57,3.29,3.29,0,*40
1499472200.39,1795,16.88,74034.3,4.55,3.25,3.19,0,*4C
1499472201.64,1796,16.88,74034.8,4.55,3.41,3.41,0,*40
1499472202.87,1797,16.88,74034.3,4.53,3.49,3.49,0,*47
1499472204.09,1798,16.88,74028.8,4.53,3.45,3.49,0,*44
1499472205.28,1799,16.88,74028.0,4.55,3.59,3.59,0,*4F
1499472206.49,1800,16.88,74016.3,4.53,3.67,3.59,0,*4B
1499472207.69,1801,16.88,74016.8,4.55,3.81,3.81,0,*41
1499472208.89,1802,16.88,74014.8,4.55,3.81,3.81,0,*42
1499472210.08,1803,16.88,74014.8,4.55,3.81,3.85,0,*47
1499472211.28,1804,16.88,74016.3,4.55,3.85,3.89,0,*48
1499472212.46,1805,16.88,74014.5,4.61,3.89,3.89,0,*42
1499472213.64,1806,16.88,74014.0,4.57,3.89,3.89,0,*44
1499472214.81,1807,16.88,74016.5,4.57,3.93,3.93,0,*45
1499472215.99,1808,16.88,74016.0,4.57,3.93,3.93,0,*4A
1499472217.16,1809,16.88,74022.0,4.57,3.93,3.93,0,*4B
1499472218.34,1810,16.88,74022.0,4.57,3.93,3.89,0,*48
1499472219.52,1811,16.88,74026.8,4.57,3.89,3.93,0,*49
1499472220.71,1812,16.88,74022.3,4.57,3.89,4.01,0,*46
1499472221.89,1813,16.88,74022.8,4.61,3.93,3.93,0,*45
1499472223.09,1814,16.88,74022.8,4.57,3.93,4.01,0,*4B
1499472224.29,1815,16.88,74020.3,4.57,3.89,4.01,0,*41
1499472225.46,1816,16.88,74016.5,4.57,3.93,3.93,0,*45
1499472226.64,1817,16.88,74016.0,4.57,3.93,3.89,0,*4F
1499472227.82,1818,16.88,74018.8,4.57,3.89,3.89,0,*4B
1499472228.99,1819,16.88,74016.8,4.57,3.93,3.89,0,*41
1499472230.21,1820,16.88,74020.8,4.57,4.05,4.01,0,*44
1499472231.39,1821,16.88,74016.8,4.57,3.93,3.93,0,*41
1499472232.61,1822,16.88,74018.5,4.57,4.01,4.01,0,*42
1499472233.79,1823,16.88,74022.5,4.61,3.93,3.93,0,*46
1499472234.99,1824,16.88,74022.0,4.61,3.93,4.01,0,*4D
1499472236.17,1825,16.88,74020.0,4.61,3.89,3.89,0,*40
1499472237.35,1826,16.88,74018.5,4.61,3.89,3.89,0,*43
1499472238.53,1827,16.88,74022.8,4.57,3.89,3.89,0,*47
1499472239.73,1828,16.88,74020.0,4.63,3.93,3.93,0,*4F
1499472240.94,1829,16.88,74018.3,4.63,3.93,3.89,0,*45
1499472242.11,1830,16.88,74022.8,4.61,3.89,3.85,0,*48
1499472243.28,1831,16.88,74022.3,4.57,3.89,3.85,0,*4C
1499472244.45,1832,16.88,74024.5,4.61,3.85,3.85,0,*46
1499472245.62,1833,16.88,74020.8,4.57,3.85,3.85,0,*42
1499472246.79,1834,16.88,74022.3,4.61,3.85,3.85,0,*40
1499472247.96,1835,16.88,74024.0,4.61,3.85,3.85,0,*41
1499472249.13,1836,16.88,74020.5,4.61,3.85,3.85,0,*42
1499472250.36,1837,16.88,74024.8,4.57,3.75,3.75,0,*46
1499472251.58,1838,16.88,74026.8,4.61,3.75,3.79,0,*40
1499472252.81,1839,16.88,74024.8,4.61,3.79,3.79,0,*4D
1499472254.01,1840,16.88,74030.8,4.61,3.79,3.85,0,*40
1499472255.18,1841,16.88,74030.5,4.57,3.85,3.89,0,*4B
1499472256.38,1842,16.88,74028.8,4.57,3.79,3.89,0,*4B
1499472257.58,1843,16.88,74030.5,4.61,3.85,3.79,0,*43
1499472258.75,1844,16.88,74034.0,4.57,3.85,3.85,0,*42
1499472259.94,1845,16.88,74036.0,4.57,3.79,3.85,0,*40
1499472261.11,1846,16.88,74038.0,4.57,3.85,3.85,0,*40
1499472262.33,1847,16.88,74042.0,4.61,3.79,3.79,0,*44
1499472263.55,1848,16.88,74032.8,4.57,3.79,3.79,0,*4E
1499472264.77,1849,16.88,74030.3,4.57,3.79,3.79,0,*4F
1499472266.0,1850,16.88,74028.3,4.57,3.79,3.75,0,*4B
1499472267.22,1851,16.88,74026.3,4.57,3.79,3.79,0,*46
1499472268.39,1852,16.88,74022.0,4.61,3.63,3.63,0,*40
1499472269.55,1853,16.94,74018.8,4.57,3.55,3.55,0,*44
1499472270.78,1854,16.88,74012.8,4.57,3.75,3.75,0,*43
1499472272.01,1855,16.88,74014.0,4.57,3.75,3.75,0,*42
1499472273.24,1856,16.88,74012.0,4.57,3.75,3.75,0,*41
1499472274.46,1857,16.88,74012.0,4.57,3.79,3.79,0,*40
1499472275.62,1858,16.88,74018.5,4.57,3.85,3.85,0,*4F
1499472276.8,1859,16.88,74020.8,4.61,3.89,3.85,0,*47
1499472277.97,1860,16.88,74020.0,4.57,3.89,3.93,0,*4F
1499472279.15,1861,16.88,74016.5,4.57,3.93,3.93,0,*45
1499472280.33,1862,16.88,74016.8,4.57,3.89,3.93,0,*4D
1499472281.51,1863,16.88,74014.5,4.61,3.93,3.93,0,*42
1499472282.71,1864,16.88,74020.5,4.61,3.93,4.01,0,*49
1499472283.93,1865,16.88,74018.5,4.57,4.01,4.05,0,*45
1499472285.15,1866,16.94,74020.8,4.61,4.01,4.05,0,*43
1499472286.37,1867,16.88,74020.5,4.61,4.01,4.01,0,*46
1499472287.59,1868,16.88,74026.0,4.61,4.01,4.01,0,*49
1499472288.82,1869,16.88,74020.8,4.61,4.05,4.05,0,*48
1499472290.04,1870,16.88,74030.5,4.61,4.01,4.05,0,*44
1499472291.26,1871,16.88,74028.3,4.57,4.05,4.01,0,*40
1499472292.49,1872,16.88,74032.3,4.61,4.05,4.01,0,*46
1499472293.71,1873,16.88,74032.3,4.63,3.97,4.07,0,*4F
1499472294.94,1874,16.88,74028.3,4.61,4.05,4.05,0,*44
1499472296.17,1875,16.88,74024.3,4.61,4.05,4.05,0,*45
1499472297.4,1876,16.88,74028.0,4.61,4.05,4.01,0,*42
1499472298.63,1877,16.88,74030.3,4.61,4.05,4.05,0,*47
1499472299.85,1878,16.88,74034.3,4.61,4.01,4.05,0,*4C
1499472301.08,1879,16.88,74036.3,4.61,4.05,4.01,0,*4D
1499472302.31,1880,16.88,74042.3,4.61,4.05,4.05,0,*4F
1499472303.56,1881,16.88,74040.5,4.63,4.05,4.05,0,*4C
1499472304.81,1882,16.88,74030.8,4.63,3.97,4.05,0,*43
1499472306.06,1883,16.88,74032.8,4.63,3.97,4.05,0,*42
1499472307.31,1884,16.88,74042.0,4.63,4.05,3.97,0,*45
1499472308.56,1885,16.88,74046.5,4.63,4.05,4.05,0,*48
1499472309.77,1886,16.88,74034.8,4.63,4.07,4.07,0,*4B
1499472311.02,1887,16.88,74038.5,4.63,4.05,4.05,0,*4A
1499472312.24,1888,16.88,74046.8,4.65,4.05,4.05,0,*43
1499472313.5,1889,16.94,74048.8,4.63,4.05,4.05,0,*44
1499472314.75,1890,16.88,74042.8,4.63,3.97,4.05,0,*40
1499472316.0,1891,16.88,74040.3,4.63,4.05,4.05,0,*4D
1499472317.25,1892,16.88,74040.0,4.63,4.05,4.05,0,*4E
1499472318.45,1893,16.88,74040.0,4.65,4.05,4.19,0,*44
1499472319.65,1894,16.88,74042.3,4.63,4.07,4.07,0,*48
1499472320.91,1895,16.88,74040.3,4.63,4.05,4.05,0,*49
1499472322.16,1896,16.88,74040.0,4.63,4.05,4.05,0,*4A
1499472323.41,1897,16.88,74046.3,4.63,4.05,3.97,0,*47
1499472324.62,1898,16.88,74044.0,4.65,3.97,3.97,0,*42
1499472325.82,1899,16.88,74044.8,4.65,4.07,4.05,0,*41
1499472327.0,1900,16.88,74042.0,4.65,4.07,4.07,0,*42
1499472328.22,1901,16.88,74040.0,4.63,4.05,4.15,0,*44
1499472329.4,1902,16.88,74040.5,4.65,4.07,4.07,0,*40
1499472330.57,1903,16.88,74038.8,4.65,4.07,4.07,0,*41
1499472331.74,1904,16.88,74046.0,4.65,4.07,4.07,0,*46
1499472332.94,1905,16.88,74042.5,4.65,4.07,4.05,0,*45
1499472334.14,1906,16.88,74038.0,4.65,4.05,4.07,0,*46
1499472335.34,1907,16.88,74034.3,4.65,4.05,4.07,0,*47
1499472336.52,1908,16.88,74038.5,4.65,4.07,4.07,0,*4A
1499472337.72,1909,16.88,74038.0,4.63,4.07,4.07,0,*4D
1499472338.89,1910,16.88,74030.8,4.65,4.15,4.07,0,*40
1499472340.09,1911,16.88,74034.0,4.65,4.07,4.05,0,*40
1499472341.35,1912,16.88,74038.8,4.63,4.05,4.05,0,*47
1499472342.54,1913,16.88,74024.8,4.65,4.07,4.05,0,*42
1499472343.74,1914,16.88,74022.3,4.65,4.05,4.07,0,*45
1499472344.97,1915,16.88,74026.3,4.65,4.05,4.05,0,*46
1499472346.17,1916,16.88,74034.0,4.67,4.07,4.07,0,*47
1499472347.37,1917,16.88,74038.3,4.67,4.07,4.11,0,*41
1499472348.57,1918,16.88,74040.0,4.67,4.07,4.11,0,*4E
1499472349.76,1919,16.88,74040.5,4.67,4.11,4.11,0,*48
1499472350.99,1920,16.88,74038.3,4.65,4.05,4.05,0,*40
1499472352.19,1921,16.88,74038.5,4.65,4.05,4.07,0,*43
1499472353.38,1922,16.88,74038.3,4.65,4.05,4.15,0,*43
1499472354.61,1923,16.88,74038.8,4.65,4.05,4.05,0,*43
1499472355.83,1924,16.88,74036.3,4.65,4.05,4.05,0,*44
1499472357.04,1925,16.88,74038.8,4.65,3.97,3.97,0,*45
1499472358.22,1926,16.88,74042.5,4.65,4.07,4.07,0,*46
1499472359.44,1927,16.88,74042.3,4.65,4.05,4.05,0,*47
1499472360.67,1928,16.88,74036.3,4.65,4.05,4.05,0,*48
1499472361.89,1929,16.88,74032.3,4.65,4.05,4.05,0,*49
1499472363.09,1930,16.88,74028.0,4.67,4.07,4.11,0,*44
1499472364.29,1931,16.88,74026.0,4.67,4.07,4.11,0,*45
1499472365.48,1932,16.88,74028.3,4.67,4.07,4.11,0,*46
1499472366.68,1933,16.88,74038.0,4.67,4.19,4.11,0,*48
1499472367.87,1934,16.88,74044.0,4.67,4.07,4.11,0,*40
1499472369.07,1935,16.88,74046.8,4.67,4.11,4.11,0,*46
1499472370.31,1936,16.94,74046.8,4.67,4.01,3.97,0,*4D
1499472371.52,1937,16.88,74038.5,4.67,3.93,3.93,0,*44
1499472372.71,1938,16.88,74038.3,4.69,3.85,3.79,0,*46
1499472373.91,1939,16.88,74032.8,4.67,3.85,3.85,0,*4A
1499472375.11,1940,16.88,74036.0,4.67,3.93,3.93,0,*44
1499472376.33,1941,16.88,74024.5,4.67,3.97,3.93,0,*41
1499472377.5,1942,16.88,74022.8,4.65,3.81,3.81,0,*44
1499472378.72,1943,16.88,74010.5,4.65,3.79,3.79,0,*45
1499472379.9,1944,16.88,74016.5,4.65,3.89,3.89,0,*42
1499472381.07,1945,16.88,74016.0,4.65,3.89,3.93,0,*48
1499472382.25,1946,16.88,74008.8,4.65,3.81,3.81,0,*40
1499472383.42,1947,16.88,74000.8,4.65,3.81,3.89,0,*49
1499472384.59,1948,16.88,73996.8,4.65,3.89,3.89,0,*4E
1499472385.84,1949,16.88,74000.3,4.63,3.71,3.71,0,*49
1499472387.01,1950,16.88,74004.0,4.65,3.59,3.59,0,*47
1499472388.24,1951,16.88,74002.8,4.63,3.67,3.59,0,*4D
1499472389.43,1952,16.88,74000.8,4.63,3.59,3.55,0,*4F
1499472390.62,1953,16.88,74000.8,4.63,3.55,3.59,0,*4E
1499472391.81,1954,16.88,74002.3,4.63,3.59,3.55,0,*49
1499472393.07,1955,16.88,74008.0,4.63,3.67,3.67,0,*44
1499472394.23,1956,16.88,74004.8,4.61,3.55,3.63,0,*40
1499472395.4,1957,16.88,74016.3,4.61,3.55,3.55,0,*44
1499472396.59,1958,16.88,74020.0,4.61,3.55,3.53,0,*4D
1499472397.82,1959,16.88,74026.8,4.57,3.45,3.41,0,*4B
1499472399.04,1960,16.88,74030.0,4.61,3.33,3.41,0,*45
1499472400.27,1961,16.88,74032.3,4.57,3.33,3.33,0,*44
1499472401.49,1962,16.88,74032.3,4.57,3.41,3.33,0,*42
1499472402.68,1963,16.88,74032.0,4.57,3.29,3.23,0,*4C
1499472403.86,1964,16.88,74024.8,4.57,3.29,3.29,0,*41
1499472405.07,1965,16.88,74034.0,4.57,3.53,3.53,0,*40
1499472406.28,1966,16.88,74028.5,4.57,3.53,3.53,0,*43
1499472407.48,1967,16.88,74018.8,4.55,3.25,3.29,0,*4C
1499472408.74,1968,16.88,74018.0,4.55,3.15,3.15,0,*4F
1499472409.96,1969,16.88,74018.8,4.53,3.11,3.23,0,*49
1499472411.16,1970,16.88,74022.8,4.55,3.25,3.29,0,*4A
1499472412.38,1971,16.88,74012.5,4.53,3.33,3.37,0,*45
1499472413.57,1972,16.88,74012.3,4.53,3.49,3.55,0,*4F
1499472414.8,1973,16.88,74004.8,4.55,3.75,3.63,0,*42
1499472416.05,1974,16.88,74012.8,4.55,3.41,3.41,0,*42
1499472417.28,1975,16.88,74008.5,4.53,3.45,3.37,0,*40
1499472418.5,1976,16.88,73994.5,4.53,3.45,3.45,0,*46
1499472419.75,1977,16.94,73990.0,4.51,3.45,3.45,0,*45
1499472420.92,1978,16.88,73990.8,4.53,3.55,3.55,0,*48
1499472422.1,1979,16.88,73988.5,4.51,3.55,3.55,0,*4B
1499472423.32,1980,16.88,73984.3,4.51,3.67,3.59,0,*40
1499472424.57,1981,16.88,73988.3,4.51,3.71,3.71,0,*4C
1499472425.82,1982,16.88,73984.3,4.51,3.79,3.79,0,*4F
1499472427.01,1983,16.88,73984.8,4.53,3.81,3.79,0,*4B
1499472428.21,1984,16.88,73988.0,4.53,3.81,3.79,0,*4C
1499472429.39,1985,16.88,74006.3,4.53,3.85,3.81,0,*4E
1499472430.59,1986,16.88,74004.8,4.55,3.85,3.89,0,*43
1499472431.81,1987,16.88,74002.5,4.53,3.79,3.79,0,*48
1499472433.01,1988,16.88,74012.3,4.55,3.81,3.81,0,*41
1499472434.18,1989,16.88,74008.8,4.53,3.85,3.85,0,*46
1499472435.35,1990,16.88,74014.3,4.57,3.85,3.89,0,*46
1499472436.55,1991,16.88,74014.8,4.55,3.89,3.85,0,*45
1499472437.78,1992,16.88,74020.8,4.53,3.75,3.71,0,*48
1499472438.97,1993,16.88,74016.3,4.57,3.55,3.53,0,*4F
1499472440.16,1994,16.88,74010.5,4.53,3.37,3.25,0,*49
1499472441.37,1995,16.88,74016.0,4.55,3.29,3.29,0,*4D
1499472442.59,1996,16.88,74022.5,4.53,3.45,3.37,0,*4D
1499472443.78,1997,16.88,74022.8,4.53,3.55,3.49,0,*44
1499472444.98,1998,16.88,74024.0,4.53,3.55,3.49,0,*4B
1499472446.21,1999,16.88,74026.0,4.55,3.41,3.25,0,*43
1499472447.38,2000,16.88,74030.0,4.53,2.99,2.99,0,*4D
1499472448.6,2001,16.88,74028.0,4.53,3.11,3.11,0,*4C
1499472449.78,2002,16.88,74026.3,4.49,2.99,2.95,0,*48
1499472451.03,2003,16.88,74034.5,4.51,3.11,3.03,0,*4F
1499472452.22,2004,16.88,74034.5,4.51,2.99,2.95,0,*47
1499472453.39,2005,16.88,74030.5,4.49,2.99,2.95,0,*4F
1499472454.62,2006,16.88,74032.3,4.49,3.07,3.07,0,*40
1499472455.85,2007,16.88,74032.3,4.49,3.07,3.07,0,*41
1499472457.07,2008,16.88,74036.3,4.49,3.19,3.07,0,*41
1499472458.29,2009,16.88,74046.3,4.49,3.23,3.19,0,*46
1499472459.49,2010,16.88,74042.8,4.47,3.29,3.29,0,*49
1499472460.74,2011,16.88,74046.3,4.47,3.23,3.11,0,*49
1499472461.97,2012,16.88,74040.0,4.45,3.15,3.15,0,*49
1499472463.22,2013,16.88,74030.0,4.47,3.23,3.23,0,*4A
1499472464.47,2014,16.88,74024.8,4.47,3.41,3.41,0,*4D
1499472465.72,2015,16.88,74024.5,4.47,3.45,3.53,0,*4B
1499472466.96,2016,16.88,74010.3,4.47,3.53,3.53,0,*4F
1499472468.2,2017,16.94,74002.0,4.47,3.53,3.53,0,*4E
1499472469.39,2018,16.88,73996.8,4.47,3.63,3.63,0,*41
1499472470.61,2019,16.88,73996.0,4.47,3.63,3.67,0,*44
1499472471.8,2020,16.88,73996.3,4.47,3.55,3.55,0,*4A
1499472472.99,2021,16.88,74006.3,4.47,3.55,3.55,0,*4B
1499472474.18,2022,16.88,74000.8,4.47,3.63,3.63,0,*48
1499472475.41,2023,16.88,73998.8,4.49,3.67,3.67,0,*47
1499472476.66,2024,16.88,74006.0,4.47,3.75,3.67,0,*4D
1499472477.91,2025,16.88,74010.0,4.47,3.75,3.75,0,*4F
1499472479.16,2026,16.88,74010.3,4.47,3.75,3.79,0,*40
1499472480.41,2027,16.94,74012.5,4.47,3.67,3.67,0,*4D
1499472481.6,2028,16.88,74012.3,4.47,3.55,3.63,0,*47
1499472482.86,2029,16.88,74022.5,4.47,3.75,3.75,0,*43
1499472484.11,2030,16.88,74020.0,4.47,3.75,3.75,0,*4B
1499472485.37,2031,16.88,74024.0,4.47,3.75,3.75,0,*4A
1499472486.62,2032,16.88,74026.8,4.47,3.75,3.75,0,*49
1499472487.88,2033,16.88,74028.3,4.47,3.75,3.75,0,*48
1499472489.11,2034,16.88,74034.0,4.49,3.75,3.75,0,*41
1499472490.34,2035,16.88,74036.8,4.49,3.75,3.79,0,*4C
1499472491.54,2036,16.88,74038.8,4.49,3.75,3.81,0,*48
1499472492.75,2037,16.88,74038.0,4.49,3.79,3.81,0,*45
1499472493.97,2038,16.88,74042.8,4.49,3.79,3.79,0,*4D
1499472495.2,2039,16.88,74032.3,4.49,3.75,3.79,0,*40
1499472496.43,2040,16.88,74034.5,4.49,3.75,3.79,0,*4E
1499472497.67,2041,16.88,74028.8,4.51,3.79,3.79,0,*4A
1499472498.9,2042,16.88,74026.0,4.49,3.75,3.79,0,*4C
1499472500.13,2043,16.88,74020.5,4.49,3.67,3.75,0,*42
1499472501.36,2044,16.88,74016.0,4.49,3.75,3.67,0,*45
1499472502.59,2045,16.88,74012.8,4.49,3.75,3.75,0,*47
1499472503.82,2046,16.88,74012.0,4.49,3.75,3.75,0,*44
1499472505.01,2047,16.88,74018.8,4.51,3.85,3.85,0,*4C
1499472506.21,2048,16.88,74028.0,4.51,3.85,3.93,0,*44
1499472507.38,2049,16.88,74024.8,4.49,3.81,3.81,0,*4B
1499472508.59,2050,16.88,74028.3,4.49,3.79,3.81,0,*44
1499472509.78,2051,16.88,74024.0,4.51,3.85,3.93,0,*4C
1499472510.96,2052,16.88,74026.3,4.49,3.81,3.89,0,*49
1499472512.16,2053,16.88,74030.8,4.51,3.93,3.93,0,*49
1499472513.38,2054,16.88,74028.0,4.49,3.79,3.79,0,*47
1499472514.63,2055,16.88,74020.3,4.51,3.79,3.79,0,*4F
1499472515.86,2056,16.88,74012.0,4.49,3.75,3.67,0,*46
1499472517.09,2057,16.88,74012.8,4.49,3.75,3.75,0,*44
1499472518.28,2058,16.88,74012.5,4.51,3.81,3.81,0,*42
1499472519.47,2059,16.88,74008.8,4.51,3.85,3.85,0,*43
1499472520.66,2060,16.88,74002.8,4.51,3.85,3.85,0,*49
1499472521.85,2061,16.88,74006.3,4.51,3.85,3.85,0,*48
1499472523.03,2062,16.88,74004.8,4.49,3.81,3.89,0,*4A
1499472524.25,2063,16.88,74002.0,4.51,3.93,3.97,0,*4E
1499472525.45,2064,16.88,74000.5,4.51,3.81,3.93,0,*4E
1499472526.64,2065,16.88,74006.0,4.51,3.85,3.85,0,*4C
1499472527.84,2066,16.88,74014.8,4.51,3.85,3.93,0,*48
1499472529.05,2067,16.88,74020.8,4.51,3.97,3.85,0,*4D
1499472530.25,2068,16.88,74026.3,4.51,3.93,3.93,0,*41
1499472531.44,2069,16.88,74026.5,4.51,3.93,3.85,0,*47
1499472532.63,2070,16.88,74024.5,4.51,3.85,3.85,0,*48
1499472533.88,2071,16.88,74022.8,4.55,3.97,3.97,0,*4D
1499472535.05,2072,16.88,74030.5,4.53,3.93,3.93,0,*48
1499472536.23,2073,16.88,74028.0,4.53,3.93,3.93,0,*49